Showing default

ESSA 3 (TOS-A), 2435

Orbit data source: Space-Track

ESSA 3 (TOS-A), 2435 is a payload satellite owned by ESSA (US) in SSO that was launched on Sun, 02 Oct 1966 UTC via a THOR DELTA E launch vehicle from the Air Force Western Test Range (AFWTR). Payload-class satellites include a variety of spacecraft equipped with specific instruments for various scientific and technological missions. These include communications satellites like Starlink; space stations such as the ISS; scientific satellites like the Hubble; Earth observation satellites from companies like Planet Labs, Umbra, and HawkEye 360; GPS; miniature CubeSats for education and research; and military/defense satellites.

Loading next visibility...
Identifier
2435, 1966-087A
Orbit
SSO
Country
Flag of USUS
Related business
Manufacturer
RCA/East Windsor
Mission
Non-operational spacecraft
Bus & Motor
TIROS I, Unknown motor
Mass
148 kg wet, 148 kg dry
Launch date (UTC)
1966-10-02 (60 years ago)
Launch vehicle
THOR DELTA E
Launch site
Air Force Western Test Range (AFWTR)
Object type
Payload
Rocket body
Debris
Shape & HBR
CYL, 1.1 m
Radar Cross Section
Medium (>0.1 m² and <1 m²)

Expand to show TLE details & history
Last TLE update: 18 hours ago

TLE from 18 hours ago
0 ESSA 3 (TOS-A)
1 02435U 66087A   26263.59359565 -.00000048  00000-0 -37007-4 0  9992
2 02435 101.0618 160.6008 0063611 207.3178 220.7414 12.56881014750995
Epoch: 2026-09-20T14:14Z
TLE epoch observation values (Epoch: 2026-09-20T14:14:46.664Z)
Latitude
65.2153°
Longitude
-77.49745°
Altitude
1,484.758 km
Speed
7.11 km/s
True Right ascension
09h 02m 43s
True Declination
65° 05' 47"
Sunlit
Object was in daylight at epoch
Visualization orbit readout
Latitude
Unknown
Longitude
Unknown
Altitude
Unknown
Speed
Unknown
Apparent Right ascension
Unknown
Apparent Declination
Unknown
Sunlit
N/A
Visualization observer readout
Local Sidereal Time
01:04:10
Azimuth
Unknown
Elevation
Unknown
Doppler factor
Unknown
Orbital elements
Apogee altitude
1,483.033 km
Perigee altitude
1,383.654 km
Semi-major axis
7,811.48 km
Eccentricity
0.00636
Inclination
101.0618°
RAAN
160.6008°
Arg. of periapsis
207.3178°
True anomaly
220.26852°
Mean anomaly
220.7414°
Eccentric anomaly
220.50468°
Mean motion
3.14371 °/min
Orbital period
114.51 mins
BSTAR
-0.000037007
Loading maneuver chart data...
Computing Atmospheric mass density...
Loading historical data...
Loading historical data...
Loading historical data...
Loading historical data...
Loading historical data...
Loading historical data...
Loading historical data...
Other satellites on launch #87 in the year 1966 (1966-10-02 UTC)

Documentation

Showing up to 5 results
|